Location: ActonStarParty
(42.4766°N, 71.4538°W)
Time: 09:56:56
(UTC-04:00)

Cosmos 1300 - Pass Details

Date: 19 April 2018
Orbit: 513 x 516 km, 82.5° (Epoch: 21 May)

Event Time Altitude Azimuth Distance (km) Brightness Sun altitude
Rises 20:08:46 0° 195° (SSW) 2,621 6.2 -7.2°
Reaches altitude 10° 20:10:54 10° 199° (SSW) 1,739 5.3 -7.5°
Maximum altitude 20:14:40 59° 279° (W) 599 3.4 -8.2°
Drops below altitude 10° 20:18:28 10° 1° (N) 1,754 5.7 -8.8°
Sets 20:20:39 0° 5° (N) 2,646 6.6 -9.2°
